Location: Moonridge Observatory
(39.2268°N, 77.7914°W)
Time: 21:54:49
(UTC-05:00)

Amateur Radio Satellites - All Passes

Search period start: 28 February 2015 21:24
Search period end: 01 March 2015 21:24
Location: Moonridge Observatory, 39.2268°N, 77.7914°W

Satellite Date Start Highest point End Downlink Frequencies (MHz)
Time Altitude Azimuth
DELFI C3 28 Feb 21:34:18 21:38:13 51° 261° (W) 21:42:10 145.870
AISAT 28 Feb 21:37:15 21:41:25 39° 72° (ENE) 21:45:38 437.250
DX 1 28 Feb 21:44:08 21:48:30 68° 258° (WSW) 21:52:54 434.975-435.025
VELOX 1 28 Feb 21:47:42 21:52:01 49° 73° (ENE) 21:56:23 145.980
CUBEBUG 1 28 Feb 21:49:29 21:52:52 22° 68° (ENE) 21:56:21 437.445
AAUSAT CUBESAT 2 28 Feb 21:50:48 21:52:55 13° 270° (W) 21:54:49 437.432
COMPASS 1 28 Feb 21:52:25 21:53:48 11° 271° (W) 21:54:56 437.405
DOVE 4 28 Feb 21:53:20 21:56:21 15° 270° (W) 21:59:04 437.250
PCSat 28 Feb 21:53:39 21:58:49 44° 304° (NW) 22:04:01 145.827
ESTCUBE 1 28 Feb 21:55:20 21:59:09 28° 70° (ENE) 22:03:04 437.505/2401.250
POLYITAN 1 28 Feb 22:01:54 22:02:44 11° 89° (E) 22:03:51 437.675
POPSAT HIP 1 28 Feb 22:03:24 22:04:26 11° 89° (E) 22:05:45 437.405
FUNcube-1 28 Feb 22:04:12 22:08:22 41° 262° (W) 22:12:28 145.935
ZACube-1 28 Feb 22:04:37 22:08:48 40° 262° (W) 22:12:52 437.345
PHONESAT 2.4 28 Feb 22:09:55 22:13:33 75° 6° (N) 22:17:10 2401.200-2431.200
UNISAT 6 28 Feb 22:11:07 22:14:44 27° 95° (E) 22:18:26 437.425
UKube-1 28 Feb 22:17:14 22:21:05 30° 264° (W) 22:24:55 .
CINEMA 3 28 Feb 22:18:27 22:20:53 13° 270° (W) 22:23:00 145.822/145.860
UWE-3 28 Feb 22:19:27 22:23:06 23° 266° (W) 22:26:35 435.000/436.395/437.385
VERMONT LUNAR 28 Feb 22:22:10 22:25:39 76° 196° (SSW) 22:29:07 437.305
HUMSAT D 28 Feb 22:25:27 22:29:29 43° 262° (W) 22:33:29 437.325/437.525
NANOSAT C BR1 28 Feb 22:25:42 22:28:51 21° 93° (E) 22:32:05 145.865
SPROUT 28 Feb 22:31:25 22:33:54 16° 67° (ENE) 22:36:33 437.525
TIGRISAT 28 Feb 22:36:55 22:41:05 51° 100° (E) 22:45:18 435.000
TISAT 1 28 Feb 22:42:45 22:45:41 19° 68° (ENE) 22:48:45 437.305
50 SAT 28 Feb 22:45:48 22:49:28 33° 263° (W) 22:53:06 437.505
ANTELSAT 28 Feb 22:49:11 22:53:28 75° 102° (ESE) 22:57:48 437.575/2403.000
GONETS M04 28 Feb 22:51:04 22:59:40 62° 282° (WNW) 23:08:16
RS-15 28 Feb 22:53:51 23:03:54 46° 111° (ESE) 23:14:10 29.354- 29.394
QB50P1 28 Feb 22:57:14 23:01:20 48° 99° (E) 23:05:26 145.935-145.965
QB50P2 28 Feb 23:00:15 23:04:24 54° 100° (E) 23:08:32 145.880/145.840
AISAT 28 Feb 23:15:01 23:18:14 18° 268° (W) 23:21:18 437.250
CUSAT 1 28 Feb 23:16:43 23:21:56 25° 95° (E) 23:26:21 437.405
DUCHIFAT 1 28 Feb 23:17:16 23:21:30 84° 99° (E) 23:25:42 145.980
BUGSAT 1 28 Feb 23:19:07 23:23:17 65° 101° (E) 23:27:22 437.445
CUBEBUG 1 28 Feb 23:25:04 23:29:05 32° 264° (W) 23:33:05 437.445
VELOX 1 28 Feb 23:26:22 23:28:57 14° 270° (W) 23:31:19 145.980
ESTCUBE 1 28 Feb 23:32:13 23:36:02 26° 266° (W) 23:39:47 437.505/2401.250
ITUPSAT 1 28 Feb 23:32:41 23:33:55 11° 62° (ENE) 23:35:26 437.325
POLYITAN 1 28 Feb 23:34:59 23:39:09 58° 286° (WNW) 23:43:16 437.675
POPSAT HIP 1 28 Feb 23:36:38 23:40:48 57° 286° (WNW) 23:44:55 437.405
UNISAT 6 28 Feb 23:47:58 23:51:28 24° 290° (WNW) 23:54:56 437.425
PHONESAT 2.4 28 Feb 23:48:28 23:51:58 46° 203° (SSW) 23:55:25 2401.200-2431.200
VERMONT LUNAR 01 Mar 00:00:36 00:03:17 21° 211° (SSW) 00:05:53 437.305
NANOSAT C BR1 01 Mar 00:01:03 00:04:47 30° 289° (WNW) 00:08:26 145.865
SPROUT 01 Mar 00:05:29 00:09:40 46° 261° (W) 00:13:52 437.525
DANDE 01 Mar 00:15:09 00:22:27 70° 98° (E) 00:28:01 436.750
TIGRISAT 01 Mar 00:15:17 00:17:30 14° 294° (WNW) 00:19:32 435.000
TISAT 1 01 Mar 00:17:18 00:21:16 36° 262° (W) 00:25:15 437.305
SWISSCUBE 01 Mar 00:31:37 00:36:11 49° 72° (ENE) 00:40:49 437.505
QB50P1 01 Mar 00:34:34 00:36:53 14° 294° (WNW) 00:39:00 145.935-145.965
QB50P2 01 Mar 00:37:55 00:39:55 13° 295° (WNW) 00:41:43 145.880/145.840
BEESAT 01 Mar 00:40:34 00:45:13 55° 73° (ENE) 00:49:55 436.000
GONETS M04 01 Mar 00:56:36 00:58:51 11° 306° (NW) 01:00:22
BUGSAT 1 01 Mar 00:57:16 00:58:17 11° 296° (WNW) 00:59:03 437.445
CUSAT 1 01 Mar 00:58:27 01:04:47 42° 282° (WNW) 01:09:38 437.405
RS-15 01 Mar 01:05:41 01:16:14 51° 313° (NW) 01:26:55 29.354- 29.394
ITUPSAT 1 01 Mar 01:06:26 01:11:14 81° 258° (WSW) 01:16:03 437.325
ITAMSAT 1 01 Mar 01:09:56 01:10:49 11° 87° (E) 01:12:04 435.822/435.867
Oscar 19 01 Mar 01:13:05 01:17:51 38° 97° (E) 01:22:38 437.125/150
KKS-1 01 Mar 01:26:13 01:30:08 31° 70° (ENE) 01:34:06 437.445
PHONESAT 2.4 01 Mar 01:29:06 01:29:55 10° 216° (SW) 01:30:36 2401.200-2431.200
STARS 01 Mar 01:37:38 01:41:18 26° 69° (ENE) 01:45:02 437.465
SO-50 01 Mar 01:44:13 01:48:32 44° 116° (ESE) 01:53:03 436.795
DANDE 01 Mar 02:01:27 02:05:58 18° 289° (WNW) 02:09:36 436.750
Gurwin Techsat 1B 01 Mar 02:06:33 02:11:12 31° 95° (E) 02:15:56 435.225
SWISSCUBE 01 Mar 02:11:17 02:14:23 16° 269° (W) 02:17:18 437.505
BEESAT 01 Mar 02:20:49 02:23:30 14° 270° (W) 02:25:57 436.000
BEESAT 3 01 Mar 02:24:54 02:28:54 47° 54° (NE) 02:32:52 437.485
AIST 2 01 Mar 02:34:40 02:38:01 22° 47° (NE) 02:41:24 435.215
ITAMSAT 1 01 Mar 02:45:51 02:51:06 83° 282° (WNW) 02:56:18 435.822/435.867
BEESAT 2 01 Mar 02:48:03 02:52:13 72° 57° (ENE) 02:56:19 435.950
M-CUBED/EXP-1 PRIME 01 Mar 02:48:30 02:50:57 20° 65° (ENE) 02:53:31 437.505
AUBIESAT-1 01 Mar 02:52:13 02:54:38 19° 64° (ENE) 02:57:10 437.475
Oscar 19 01 Mar 02:52:54 02:57:02 24° 293° (WNW) 03:01:03 437.125/150
YUBILEINY 01 Mar 02:54:07 03:02:27 45° 74° (ENE) 03:10:50 435.215
KKS-1 01 Mar 03:03:11 03:06:50 23° 266° (W) 03:10:22 437.445
STARS 01 Mar 03:13:55 03:17:44 27° 265° (W) 03:21:28 437.465
HORYU 2 01 Mar 03:20:37 03:24:51 42° 99° (E) 03:29:05 437.375
JAS-2 01 Mar 03:24:02 03:29:31 23° 90° (E) 03:35:30 435.910
RS-15 01 Mar 03:24:34 03:32:14 20° 344° (NNW) 03:39:52 29.354- 29.394
SO-50 01 Mar 03:25:35 03:29:19 23° 315° (NW) 03:33:05 436.795
AO-7 01 Mar 03:34:34 03:41:54 35° 97° (E) 03:49:22 29.400- 29.500
Gurwin Techsat 1B 01 Mar 03:46:29 03:51:10 31° 291° (WNW) 03:55:46 435.225
MOZHAYETS 4 01 Mar 03:59:15 04:03:44 62° 75° (ENE) 04:08:16
BEESAT 3 01 Mar 04:04:16 04:06:39 15° 250° (WSW) 04:08:50 437.485
AIST 2 01 Mar 04:12:49 04:16:46 37° 245° (WSW) 04:20:37 435.215
M-CUBED/EXP-1 PRIME 01 Mar 04:23:27 04:25:54 19° 261° (W) 04:28:20 437.505
AUBIESAT-1 01 Mar 04:27:01 04:29:31 19° 261° (W) 04:31:59 437.475
ITAMSAT 1 01 Mar 04:28:47 04:29:52 10° 300° (WNW) 04:30:38 435.822/435.867
YUBILEINY 01 Mar 04:51:11 04:59:12 39° 273° (W) 05:07:01 435.215
JUGNU 01 Mar 04:58:13 04:59:44 11° 182° (S) 05:01:14 437.505
HORYU 2 01 Mar 04:58:13 05:01:13 17° 293° (WNW) 05:04:04 437.375
PCSat 01 Mar 05:00:00 05:03:42 19° 45° (NE) 05:07:32 145.827
JAS-2 01 Mar 05:07:44 05:15:05 72° 286° (WNW) 05:22:53 435.910
STRAND 1 01 Mar 05:14:18 05:18:03 21° 66° (ENE) 05:21:57 437.568
AO-7 01 Mar 05:27:02 05:34:58 51° 295° (WNW) 05:42:48 29.400- 29.500
MOZHAYETS 4 01 Mar 05:39:45 05:41:29 12° 272° (W) 05:42:57
RS-15 01 Mar 05:42:28 05:50:21 21° 19° (NNE) 05:58:43 29.354- 29.394
PRISM 01 Mar 05:48:12 05:52:19 75° 76° (ENE) 05:56:30 437.425
CUBESAT XI-V 01 Mar 05:52:40 05:57:19 75° 76° (ENE) 06:02:03 437.345
Cubesat XI-IV 01 Mar 05:58:13 06:03:09 37° 97° (E) 06:08:05 437.490
CUTE-I 01 Mar 06:07:38 06:12:45 44° 98° (E) 06:17:52 437.470
PCSat 01 Mar 06:42:18 06:47:44 70° 244° (WSW) 06:53:06 145.827
SRMSAT 01 Mar 06:44:44 06:46:10 11° 183° (S) 06:47:35 437.500
STRAND 1 01 Mar 06:52:03 06:56:58 45° 261° (W) 07:01:55 437.568
JAS-2 01 Mar 06:55:21 06:59:13 15° 301° (WNW) 07:02:45 435.910
AIST 1 01 Mar 07:05:13 07:09:21 46° 93° (E) 07:13:35
GONETS M04 01 Mar 07:09:50 07:11:56 11° 55° (NE) 07:14:48
AO-7 01 Mar 07:24:25 07:26:00 10° 314° (NW) 07:27:03 29.400- 29.500
Cubesat XI-IV 01 Mar 07:38:35 07:43:08 28° 293° (WNW) 07:47:33 437.490
CUTE-I 01 Mar 07:48:22 07:52:35 23° 294° (WNW) 07:56:39 437.470
RS-15 01 Mar 07:55:08 08:06:13 55° 49° (NE) 08:17:53 29.354- 29.394
DOVE 4 01 Mar 08:15:23 08:17:45 15° 90° (E) 08:20:16 437.250
SEEDS 01 Mar 08:23:39 08:26:58 22° 94° (E) 08:30:21 437.485
CANX-2 01 Mar 08:23:46 08:27:29 30° 96° (E) 08:31:16 2200.000
O/OREOS (USA 219) 01 Mar 08:31:09 08:33:29 14° 100° (E) 08:36:02 437.305
CINEMA 3 01 Mar 08:36:37 08:38:31 13° 90° (E) 08:40:37 145.822/145.860
HO-68 01 Mar 08:38:10 08:45:04 48° 99° (E) 08:51:59 435.675
CUTE 1.7 + AOD 2 01 Mar 08:42:23 08:46:27 44° 98° (E) 08:50:32 437.475
AIST 1 01 Mar 08:44:59 08:47:24 14° 291° (WNW) 08:49:37
BRITE-PL 01 Mar 08:55:07 08:59:45 79° 284° (WNW) 09:04:02 437.365/2234.400
GONETS M04 01 Mar 09:02:23 09:11:04 64° 79° (E) 09:19:46
CUBEBUG 2 01 Mar 09:08:11 09:10:48 17° 92° (E) 09:13:35 437.445
GOMX 1 01 Mar 09:08:41 09:13:08 85° 281° (W) 09:17:20 467.674
UNISAT 6 01 Mar 09:09:41 09:13:04 22° 69° (ENE) 09:16:31 437.425
Oscar 11 01 Mar 09:12:47 09:16:27 27° 95° (E) 09:20:12 145.826/435.025
DELFI C3 01 Mar 09:15:50 09:19:03 22° 94° (E) 09:22:20 145.870
NANOSAT C BR1 01 Mar 09:18:23 09:20:47 15° 67° (ENE) 09:23:21 145.865
ISS 01 Mar 09:18:44 09:21:53 56° 139° (SE) 09:25:04 145.825
AAUSAT CUBESAT 2 01 Mar 09:32:34 09:36:46 78° 284° (WNW) 09:40:58 437.432
COMPASS 1 01 Mar 09:33:50 09:38:00 65° 284° (WNW) 09:42:10 437.405
DX 1 01 Mar 09:34:22 09:37:43 22° 94° (E) 09:41:09 434.975-435.025
TIGRISAT 01 Mar 09:34:47 09:38:56 40° 73° (ENE) 09:43:01 435.000
ANTELSAT 01 Mar 09:47:12 09:51:32 58° 75° (ENE) 09:55:50 437.575/2403.000
QB50P1 01 Mar 09:49:11 09:53:00 32° 71° (ENE) 09:56:52 145.935-145.965
DOVE 4 01 Mar 09:51:49 09:55:51 40° 288° (WNW) 09:59:44 437.250
QB50P2 01 Mar 09:52:19 09:56:13 36° 72° (ENE) 10:00:11 145.880/145.840
FUNcube-1 01 Mar 09:53:45 09:57:36 37° 97° (E) 10:01:29 145.935
ZACube-1 01 Mar 09:54:21 09:58:14 38° 98° (E) 10:02:09 437.345
SEEDS 01 Mar 09:59:09 10:02:48 28° 289° (WNW) 10:06:23 437.485
CANX-2 01 Mar 09:59:59 10:03:19 22° 291° (WNW) 10:06:31 2200.000
UKube-1 01 Mar 10:05:28 10:09:40 46° 99° (E) 10:13:51 .
RS-15 01 Mar 10:07:51 10:18:37 46° 249° (WSW) 10:29:36 29.354- 29.394
O/OREOS (USA 219) 01 Mar 10:08:04 10:12:30 51° 295° (WNW) 10:17:00 437.305
BUGSAT 1 01 Mar 10:08:07 10:12:05 39° 72° (ENE) 10:16:07 437.445
DUCHIFAT 1 01 Mar 10:08:37 10:12:47 53° 74° (ENE) 10:16:59 145.980
UWE-3 01 Mar 10:09:33 10:13:43 74° 101° (ESE) 10:17:52 435.000/436.395/437.385
HUMSAT D 01 Mar 10:10:59 10:14:36 30° 96° (E) 10:18:16 437.325/437.525
CINEMA 3 01 Mar 10:12:05 10:16:06 44° 287° (WNW) 10:20:02 145.822/145.860
SO-50 01 Mar 10:16:36 10:21:05 33° 50° (NE) 10:25:34 436.795
CUTE 1.7 + AOD 2 01 Mar 10:19:31 10:22:04 15° 293° (WNW) 10:24:29 437.475
50 SAT 01 Mar 10:25:24 10:28:53 30° 96° (E) 10:32:25 437.505
HO-68 01 Mar 10:26:20 10:32:35 32° 296° (WNW) 10:38:42 435.675
POLYITAN 1 01 Mar 10:26:44 10:31:03 90° 252° (WSW) 10:35:22 437.675
POPSAT HIP 1 01 Mar 10:28:06 10:32:25 89° 251° (WSW) 10:36:44 437.405
CUBEBUG 2 01 Mar 10:43:54 10:47:42 35° 288° (WNW) 10:51:29 437.445
UNISAT 6 01 Mar 10:45:47 10:49:46 31° 264° (W) 10:53:37 437.425
Oscar 11 01 Mar 10:49:02 10:52:34 24° 290° (WNW) 10:56:02 145.826/435.025
DELFI C3 01 Mar 10:50:48 10:54:15 26° 289° (WNW) 10:57:38 145.870
NANOSAT C BR1 01 Mar 10:52:11 10:56:19 46° 261° (W) 11:00:27 145.865
ISS 01 Mar 10:56:03 10:58:33 20° 336° (NNW) 11:01:03 145.825
GONETS M04 01 Mar 11:00:23 11:07:19 26° 276° (W) 11:13:58
DANDE 01 Mar 11:00:38 11:02:54 23° 74° (ENE) 11:05:05 436.750
AISAT 01 Mar 11:05:28 11:09:57 87° 283° (WNW) 11:14:21 437.250
DX 1 01 Mar 11:10:09 11:14:02 31° 290° (WNW) 11:17:51 434.975-435.025
TIGRISAT 01 Mar 11:12:57 11:15:54 17° 268° (W) 11:18:39 435.000
CUBEBUG 1 01 Mar 11:14:45 11:19:03 49° 99° (E) 11:23:18 437.445
VELOX 1 01 Mar 11:15:49 11:20:16 69° 285° (WNW) 11:24:40 145.980
ESTCUBE 1 01 Mar 11:25:08 11:29:43 71° 102° (ESE) 11:34:15 437.505/2401.250
QB50P1 01 Mar 11:25:45 11:28:59 20° 267° (W) 11:32:07 145.935-145.965
ANTELSAT 01 Mar 11:27:04 11:28:47 12° 271° (W) 11:30:13 437.575/2403.000
QB50P2 01 Mar 11:29:15 11:32:18 18° 268° (W) 11:35:13 145.880/145.840
FUNcube-1 01 Mar 11:30:59 11:33:43 17° 292° (WNW) 11:36:20 145.935
ZACube-1 01 Mar 11:31:41 11:34:22 16° 292° (WNW) 11:36:54 437.345
CUSAT 1 01 Mar 11:39:35 11:42:04 37° 263° (W) 11:44:32 437.405
UKube-1 01 Mar 11:42:50 11:45:30 16° 294° (WNW) 11:47:59 .
BUGSAT 1 01 Mar 11:44:58 11:47:48 17° 268° (W) 11:50:28 437.445
DUCHIFAT 1 01 Mar 11:47:10 11:49:02 12° 271° (W) 11:50:39 145.980
HUMSAT D 01 Mar 11:47:11 11:50:15 20° 291° (WNW) 11:53:13 437.325/437.525
SPROUT 01 Mar 11:53:31 11:57:21 31° 96° (E) 12:01:12 437.525
SO-50 01 Mar 11:57:14 12:01:36 31° 246° (WSW) 12:05:52 436.795
50 SAT 01 Mar 12:00:54 12:03:44 19° 291° (WNW) 12:06:27 437.505
TISAT 1 01 Mar 12:03:05 12:06:59 36° 97° (E) 12:10:52 437.305
ITAMSAT 1 01 Mar 12:25:47 12:28:55 17° 64° (ENE) 12:32:16 435.822/435.867
Oscar 19 01 Mar 12:28:50 12:33:46 51° 72° (ENE) 12:38:45 437.125/150
SWISSCUBE 01 Mar 12:34:47 12:37:05 14° 90° (E) 12:39:38 437.505
BEESAT 01 Mar 12:43:19 12:46:05 16° 90° (E) 12:49:04 436.000
CUBEBUG 1 01 Mar 12:52:25 12:55:03 15° 294° (WNW) 12:57:31 437.445
ESTCUBE 1 01 Mar 13:04:25 13:06:04 12° 296° (WNW) 13:07:29 437.505/2401.250
ITUPSAT 1 01 Mar 13:08:40 13:12:48 28° 95° (E) 13:16:58 437.325
Gurwin Techsat 1B 01 Mar 13:26:29 13:31:28 44° 71° (ENE) 13:36:33 435.225
SPROUT 01 Mar 13:30:00 13:33:17 21° 291° (WNW) 13:36:28 437.525
TISAT 1 01 Mar 13:39:36 13:42:34 18° 292° (WNW) 13:45:24 437.305
ITAMSAT 1 01 Mar 14:02:48 14:07:58 62° 259° (W) 14:13:10 435.822/435.867
Oscar 19 01 Mar 14:09:56 14:13:29 18° 269° (W) 14:16:51 437.125/150
SWISSCUBE 01 Mar 14:10:40 14:15:25 59° 286° (WNW) 14:20:08 437.505
ISS 01 Mar 14:11:54 14:13:32 13° 16° (NNE) 14:15:12 145.825
HORYU 2 01 Mar 14:18:08 14:22:09 35° 71° (ENE) 14:26:12 437.375
BEESAT 01 Mar 14:19:38 14:24:19 52° 287° (WNW) 14:28:57 436.000
AO-7 01 Mar 14:32:15 14:39:58 45° 64° (ENE) 14:47:47 29.400- 29.500
ITUPSAT 1 01 Mar 14:46:29 14:50:41 29° 291° (WNW) 14:54:46 437.325
KKS-1 01 Mar 14:54:22 14:58:49 74° 102° (ESE) 15:03:14 437.445
STARS 01 Mar 15:04:07 15:08:28 59° 101° (E) 15:12:47 437.465
Gurwin Techsat 1B 01 Mar 15:07:37 15:11:43 22° 268° (W) 15:15:41 435.225
JAS-2 01 Mar 15:19:45 15:24:49 43° 69° (ENE) 15:30:29 435.910
ISS 01 Mar 15:47:23 15:50:34 52° 35° (NE) 15:53:45 145.825
YUBILEINY 01 Mar 15:53:25 16:01:43 53° 91° (E) 16:10:12 435.215
HORYU 2 01 Mar 15:55:39 15:58:57 20° 267° (W) 16:02:09 437.375
MOZHAYETS 4 01 Mar 15:56:42 15:59:32 16° 91° (E) 16:02:33
M-CUBED/EXP-1 PRIME 01 Mar 16:04:18 16:07:52 26° 101° (E) 16:11:42 437.505
AUBIESAT-1 01 Mar 16:07:31 16:11:02 25° 101° (E) 16:14:50 437.475
BEESAT 3 01 Mar 16:20:29 16:21:38 11° 109° (ESE) 16:23:02 437.485
AO-7 01 Mar 16:25:04 16:32:50 41° 262° (W) 16:40:32 29.400- 29.500
KKS-1 01 Mar 16:33:48 16:34:56 11° 297° (WNW) 16:35:49 437.445
STARS 01 Mar 16:42:29 16:44:30 13° 295° (WNW) 16:46:18 437.465
BEESAT 2 01 Mar 16:42:49 16:45:32 18° 111° (ESE) 16:48:24 435.950
VERMONT LUNAR 01 Mar 16:45:23 16:46:58 13° 146° (SE) 16:48:38 437.305
JAS-2 01 Mar 17:05:58 17:10:19 23° 270° (W) 17:14:50 435.910
AIST 1 01 Mar 17:15:46 17:17:02 11° 67° (ENE) 17:18:34
Cubesat XI-IV 01 Mar 17:19:05 17:24:17 55° 72° (ENE) 17:29:34 437.490
ISS 01 Mar 17:24:44 17:26:44 15° 229° (SW) 17:28:38 145.825
CUTE-I 01 Mar 17:28:21 17:33:39 66° 74° (ENE) 17:39:01 437.470
MOZHAYETS 4 01 Mar 17:32:37 17:37:04 46° 287° (WNW) 17:41:29
PRISM 01 Mar 17:34:14 17:35:37 12° 90° (E) 17:37:15 437.425
M-CUBED/EXP-1 PRIME 01 Mar 17:39:05 17:42:45 29° 293° (WNW) 17:46:36 437.505
AUBIESAT-1 01 Mar 17:42:10 17:45:52 30° 293° (WNW) 17:49:46 437.475
YUBILEINY 01 Mar 17:51:15 17:58:59 33° 291° (WNW) 18:06:34 435.215
CUBESAT XI-V 01 Mar 17:51:27 17:54:55 21° 92° (E) 17:58:29 437.345
BEESAT 3 01 Mar 17:55:14 17:59:17 61° 303° (WNW) 18:03:24 437.485
AIST 2 01 Mar 18:09:23 18:13:34 59° 118° (ESE) 18:17:48 435.215
PHONESAT 2.4 01 Mar 18:16:02 18:19:12 29° 152° (SSE) 18:22:24 2401.200-2431.200
BEESAT 2 01 Mar 18:19:33 18:23:27 40° 307° (NW) 18:27:24 435.950
VERMONT LUNAR 01 Mar 18:21:02 18:24:26 53° 160° (SSE) 18:27:52 437.305
BRITE-PL 01 Mar 18:28:19 18:31:02 14° 64° (ENE) 18:33:59 437.365/2234.400
O/OREOS (USA 219) 01 Mar 18:40:19 18:44:04 25° 58° (ENE) 18:47:52 437.305
GOMX 1 01 Mar 18:40:44 18:42:22 12° 64° (ENE) 18:44:17 467.674
AIST 1 01 Mar 18:50:52 18:55:15 60° 265° (W) 18:59:34
Cubesat XI-IV 01 Mar 19:01:08 19:04:49 18° 269° (W) 19:08:18 437.490
STRAND 1 01 Mar 19:03:25 19:08:33 67° 101° (ESE) 19:13:40 437.568
HO-68 01 Mar 19:06:02 19:12:09 33° 64° (ENE) 19:18:26 435.675
PRISM 01 Mar 19:07:23 19:11:32 55° 287° (WNW) 19:15:40 437.425
CUTE-I 01 Mar 19:11:15 19:14:19 15° 271° (W) 19:17:06 437.470
SEEDS 01 Mar 19:16:06 19:18:22 15° 67° (ENE) 19:20:49 437.485
CANX-2 01 Mar 19:16:33 19:19:33 20° 69° (ENE) 19:22:40 2200.000
DOVE 4 01 Mar 19:19:29 19:22:55 19° 68° (ENE) 19:26:25 437.250
CUBESAT XI-V 01 Mar 19:28:09 19:32:32 38° 288° (WNW) 19:36:50 437.345
CUTE 1.7 + AOD 2 01 Mar 19:34:42 19:38:17 28° 71° (ENE) 19:41:55 437.475
CINEMA 3 01 Mar 19:37:37 19:40:01 14° 67° (ENE) 19:42:35 145.822/145.860
PCSat 01 Mar 19:41:45 19:45:05 17° 106° (ESE) 19:48:40 145.827
AIST 2 01 Mar 19:49:49 19:52:36 16° 317° (NW) 19:55:16 435.215
PHONESAT 2.4 01 Mar 19:53:48 19:57:28 89° 136° (SE) 20:01:07 2401.200-2431.200
VERMONT LUNAR 01 Mar 19:58:52 20:02:22 71° 357° (N) 20:05:51 437.305
BRITE-PL 01 Mar 20:03:18 20:09:00 82° 258° (WSW) 20:14:31 437.365/2234.400
DELFI C3 01 Mar 20:04:24 20:06:14 13° 67° (ENE) 20:08:16 145.870
CUBEBUG 2 01 Mar 20:06:13 20:08:40 15° 67° (ENE) 20:11:16 437.445
Oscar 11 01 Mar 20:07:16 20:10:19 20° 68° (ENE) 20:13:29 145.826/435.025
GONETS M04 01 Mar 20:11:49 20:14:43 13° 78° (ENE) 20:18:20
GOMX 1 01 Mar 20:14:28 20:19:55 89° 94° (E) 20:25:09 467.674
O/OREOS (USA 219) 01 Mar 20:19:27 20:23:33 31° 255° (WSW) 20:27:32 437.305
AAUSAT CUBESAT 2 01 Mar 20:22:27 20:26:30 60° 76° (ENE) 20:30:37 437.432
COMPASS 1 01 Mar 20:24:01 20:28:09 73° 76° (ENE) 20:32:19 437.405
DX 1 01 Mar 20:29:37 20:32:32 18° 67° (ENE) 20:35:36 434.975-435.025
STRAND 1 01 Mar 20:44:16 20:47:16 15° 297° (WNW) 20:50:01 437.568
FUNcube-1 01 Mar 20:48:52 20:52:33 28° 71° (ENE) 20:56:14 145.935
ZACube-1 01 Mar 20:49:37 20:53:22 29° 71° (ENE) 20:57:06 437.345
SEEDS 01 Mar 20:49:51 20:53:52 44° 262° (W) 20:57:54 437.485
CANX-2 01 Mar 20:51:31 20:55:19 32° 264° (W) 20:59:07 2200.000
HO-68 01 Mar 20:52:52 20:59:42 47° 261° (W) 21:06:32 435.675
DOVE 4 01 Mar 20:55:19 21:00:24 51° 261° (W) 21:05:14 437.250
UKube-1 01 Mar 20:59:31 21:03:28 35° 71° (ENE) 21:07:28 .
HUMSAT D 01 Mar 21:02:40 21:05:42 20° 69° (ENE) 21:08:51 437.325/437.525
UWE-3 01 Mar 21:05:32 21:09:53 53° 74° (ENE) 21:14:09 435.000/436.395/437.385
CUTE 1.7 + AOD 2 01 Mar 21:10:53 21:14:14 22° 266° (W) 21:17:30 437.475
CINEMA 3 01 Mar 21:12:04 21:16:52 60° 260° (W) 21:21:28 145.822/145.860
50 SAT 01 Mar 21:12:06 21:14:41 17° 69° (ENE) 21:17:23 437.505
